OBJECT D, 66056

Orbit data source: Space-Track

You're viewing an Uncataloged Satellite

Recently launched and/or uncataloged satellites may have evolving metadata. Metadata may include but not limited to: Owner, Maufacturer, Bus, Motor, and Mission.

OBJECT D, 66056 is a satellite in SSO that was launched on Sun, 19 Oct 2025 UTC via a LIJIAN-1 launch vehicle from the Jiuquan Satellite Launch Center, China (JSC). Unknown objects in Earth's orbit typically refer to objects detected orbiting the Earth but have not yet been identified or cataloged. These objects could be anything from previously untracked satellites, spent rocket stages, debris from satellite collisions, or even natural meteoroids temporarily captured by Earth's gravity.

Loading next visibility...
Identifier
66056, 2025-234D
Orbit
SSO
Country
Flag of TBDTBD
Related business
None
Manufacturer
Unknown
Mission
Operational spacecraft
Bus & Motor
Unknown
Mass
Unknown
Launch date (UTC)
2025-10-19 (5 months ago)
Launch vehicle
LIJIAN-1
Launch site
Jiuquan Satellite Launch Center, China (JSC)
Object type
Unknown
Shape & HBR
Cyl, 1.4 m
Radar Cross Section
1.178 m²

Expand to show TLE details & history
Last TLE update: 10 hours ago

TLE from 10 hours ago
0 OBJECT D
1 66056U 25234D   26094.27867453  .00028131  00000-0  12248-2 0  9996
2 66056  97.4291 163.1726 0002304 175.3670 184.7588 15.22183133 25413
Epoch: 2026-04-04T06:41Z
TLE epoch observation values (Epoch: 2026-04-04T06:41:17.479Z)
Latitude
-0.00001°
Longitude
-129.75097°
Altitude
503.929 km
Speed
7.611 km/s
True Right ascension
10h 52m 41s
True Declination
0° 00' 00"
Sunlit
Object was in full shadow at epoch
Visualization orbit readout
Latitude
Unknown
Longitude
Unknown
Altitude
Unknown
Speed
Unknown
Apparent Right ascension
Unknown
Apparent Declination
Unknown
Sunlit
N/A
Visualization observer readout
Local Sidereal Time
22:15:50
Azimuth
Unknown
Elevation
Unknown
Doppler factor
Unknown
Orbital elements
Apogee altitude
497.805 km
Perigee altitude
494.637 km
Semi-major axis
6,874.358 km
Eccentricity
0.00023
Inclination
97.4291°
RAAN
163.1726°
Arg. of periapsis
175.367°
True anomaly
184.75661°
Mean anomaly
184.7588°
Eccentric anomaly
184.75771°
Mean motion
3.80798 °/min
Orbital period
94.54 mins
BSTAR
0.0012248
Loading maneuver chart data...
Computing Atmospheric mass density...
Loading historical data...
Loading historical data...
Loading historical data...
Loading historical data...
Loading historical data...
Loading historical data...
Loading historical data...
Other satellites on launch #234 in the year 2025 (2025-10-19 UTC)

Documentation

Showing up to 5 results
|